Weather History for KSZL - May, 2012

Change the Weather History Date:

Friday, May 18, 2012

  Actual Average Record
Temperature  
Mean Temperature 73 °F -  
Max Temperature 85 °F 73 °F 87 °F (1997)
Min Temperature 61 °F 54 °F 41 °F (2002)
Cooling Degree Days 8    
Growing Degree Days 23 (Base 50)    
Moisture  
Dew Point 55 °F    
Average Humidity 53    
Maximum Humidity 63    
Minimum Humidity 39    
Precipitation  
Precipitation 0.00 in - - ()
Sea Level Pressure  
Sea Level Pressure 29.90 in    
Wind  
Wind Speed 9 mph (SSE)    
Max Wind Speed 18 mph    
Max Gust Speed 24 mph    
Visibility 10 miles    
Events      
Averages and records for this station are not official NWS values.
T = Trace of Precipitation, MM = Missing Value Source: NWS Daily Summary

Daily Weather History Graph

Daily Weather History Graph

Search for Another Location

Airport or City:

Trip Planner

Search our weather history database for the weather conditions in past years. The results will help you decide how hot, cold, wet, or windy it might be!

Date:

Astronomy

May. 18, 2012 Rise Set
Actual Time 5:59 AM CDT 8:22 PM CDT
Civil Twilight 5:28 AM CDT 8:52 PM CDT
Nautical Twilight 4:51 AM CDT 9:30 PM CDT
Astronomical Twilight 4:10 AM CDT 10:11 PM CDT
Moon 4:27 AM CDT (5/18) 6:32 PM CDT (5/18)
Length of Visible Light 15h 23m
Length of Day
14h 23m
Waning Crescent, 5% of the Moon is Illuminated
May 18
Waning Crescent
May 20
New
May 28
First Quarter
Jun 4
Full
Jun 11
Last Quarter

Hourly Weather History & Observations

Time (CDT) Temp. Heat Index Dew Point Humidity Pressure Visibility Wind Dir Wind Speed Gust Speed Precip Events Conditions
12:55 AM 63.7 °F - 49.3 °F 59% 29.92 in 10.0 mi SE 8.1 mph - N/A   Clear
1:55 AM 62.6 °F - 48.9 °F 61% 29.93 in 10.0 mi SSE 5.8 mph - N/A   Clear
2:55 AM 63.7 °F - 48.9 °F 59% 29.92 in 10.0 mi SSE 8.1 mph - N/A   Clear
3:55 AM 61.9 °F - 48.7 °F 62% 29.93 in 10.0 mi SSE 8.1 mph - N/A   Clear
4:55 AM 61.3 °F - 48.0 °F 62% 29.92 in 10.0 mi SSE 8.1 mph - N/A   Clear
5:55 AM 61.2 °F - 47.7 °F 61% 29.93 in 10.0 mi SSE 9.2 mph - N/A   Clear
6:55 AM 61.2 °F - 48.4 °F 63% 29.94 in 10.0 mi South 8.1 mph - N/A   Clear
7:55 AM 65.7 °F - 49.8 °F 57% 29.95 in 10.0 mi SSE 10.4 mph - N/A   Clear
8:55 AM 72.1 °F - 53.1 °F 51% 29.94 in 10.0 mi South 11.5 mph - N/A   Partly Cloudy
9:55 AM 73.6 °F - 56.3 °F 55% 29.95 in 10.0 mi South 9.2 mph - N/A   Clear
10:55 AM 79.0 °F - 58.5 °F 49% 29.94 in 10.0 mi South 11.5 mph - N/A   Clear
11:55 AM 81.9 °F 82.2 °F 60.1 °F 47% 29.93 in 10.0 mi South 13.8 mph - N/A   Clear
12:55 PM 83.3 °F 83.4 °F 60.1 °F 45% 29.91 in 10.0 mi South 12.7 mph 21.9 mph N/A   Clear
1:55 PM 84.6 °F 84.2 °F 58.8 °F 42% 29.89 in 10.0 mi SSW 18.4 mph 24.2 mph N/A   Clear
2:55 PM 84.7 °F 83.9 °F 57.6 °F 39% 29.88 in 10.0 mi South 16.1 mph 24.2 mph N/A   Clear
3:55 PM 85.3 °F 84.6 °F 58.6 °F 40% 29.86 in 10.0 mi South 15.0 mph 21.9 mph N/A   Clear
4:55 PM 84.7 °F 84.2 °F 58.6 °F 41% 29.84 in 10.0 mi South 13.8 mph - N/A   Clear
5:55 PM 83.8 °F 83.1 °F 56.8 °F 40% 29.84 in 10.0 mi South 12.7 mph - N/A   Clear
6:55 PM 80.4 °F 80.9 °F 58.3 °F 47% 29.84 in 10.0 mi South 6.9 mph - N/A   Partly Cloudy
7:55 PM 79.2 °F - 58.6 °F 49% 29.84 in 10.0 mi SSE 8.1 mph - N/A   Clear
8:55 PM 75.9 °F - 59.0 °F 56% 29.84 in 10.0 mi SE 6.9 mph - N/A   Partly Cloudy
9:55 PM 74.1 °F - 59.0 °F 59% 29.85 in 10.0 mi SSE 6.9 mph - N/A   Clear
10:55 PM 73.4 °F - 58.8 °F 60% 29.86 in 10.0 mi SE 8.1 mph - N/A   Partly Cloudy
11:55 PM 72.0 °F - 58.6 °F 63% 29.86 in 10.0 mi SSE 9.2 mph - N/A   Clear